CW0608 Weather Reports


Display with metric or nautical units.
time (UTC)temp
F
wind
direction
speed
MPH
gust
MPH
rain 1hr
in
rain 24hr
in
rain mn
in
humidity
%
barometer
mb
20260901105805 72 162 0.0 2.0 0.00 0.00 0.00 98 1017.6
20260901104804 71 162 0.0 1.0 0.00 0.00 0.00 98 1017.5
20260901104304 71 162 0.0 1.0 0.00 0.00 0.00 98 1017.5
20260901102804 71 162 0.0 2.0 0.00 0.00 0.00 98 1017.4
20260901101304 70 161 0.0 1.0 0.00 0.00 0.00 98 1017.4
20260901100804 71 161 0.0 0.0 0.00 0.00 0.00 98 1017.5
20260901094304 71 161 0.0 0.0 0.00 0.00 0.00 98 1017.4
20260901093804 71 161 0.0 0.0 0.00 0.00 0.00 97 1017.4
20260901093304 71 161 0.0 0.0 0.00 0.00 0.00 97 1017.5
20260901091804 71 161 0.0 0.0 0.00 0.00 0.00 98 1017.6
20260901091304 71 161 0.0 0.0 0.00 0.00 0.00 98 1017.5
20260901090304 71 161 0.0 0.0 0.00 0.00 0.00 98 1017.8
20260901083804 71 161 0.0 0.0 0.00 0.00 0.00 98 1017.8
20260901083304 71 161 0.0 0.0 0.00 0.00 0.00 98 1017.7
20260901082306 71 161 0.0 0.0 0.00 0.00 0.00 97 1017.7
20260901081804 71 161 0.0 0.0 0.00 0.00 0.00 97 1017.6
20260901080805 71 161 0.0 0.0 0.00 0.00 0.00 97 1017.5
20260901080304 71 161 0.0 0.0 0.00 0.00 0.00 97 1017.5
20260901075804 71 161 0.0 0.0 0.00 0.00 0.00 97 1017.5
20260901074805 71 161 0.0 0.0 0.00 0.00 0.00 97 1017.5
20260901073804 71 161 0.0 0.0 0.00 0.00 0.00 97 1017.7
20260901072804 71 161 0.0 0.0 0.00 0.00 0.00 97 1017.7
20260901072309 71 161 0.0 0.0 0.00 0.00 0.00 97 1017.8
20260901071804 71 161 0.0 0.0 0.00 0.00 0.00 97 1017.8
20260901071304 71 161 0.0 0.0 0.00 0.00 0.00 97 1017.7
20260901070804 71 161 0.0 0.0 0.00 0.00 0.00 97 1017.8
20260901070304 71 161 0.0 0.0 0.00 0.00 0.00 97 1017.8
20260901065804 72 161 0.0 0.0 0.00 0.00 0.00 97 1018.0
20260901063304 72 161 0.0 0.0 0.00 0.00 0.00 97 1018.3
20260901062806 71 161 0.0 0.0 0.00 0.00 0.00 97 1018.3
20260901062309 71 161 0.0 0.0 0.00 0.00 0.00 97 1018.4
20260901061304 71 161 0.0 0.0 0.00 0.00 0.00 97 1018.4
20260901060805 71 161 0.0 0.0 0.00 0.00 0.00 97 1018.4
20260901055306 72 161 0.0 0.0 0.00 0.00 0.00 97 1018.3
20260901053805 72 161 0.0 0.0 0.00 0.00 0.00 97 1018.5
20260901052804 72 161 0.0 0.0 0.00 0.00 0.00 97 1018.6
20260901052307 72 161 0.0 0.0 0.00 0.00 0.00 97 1018.6
20260901051804 72 161 0.0 0.0 0.00 0.00 0.00 97 1018.6
20260901050804 72 161 0.0 0.0 0.00 0.00 0.00 96 1018.7
20260901050304 72 161 0.0 0.0 0.00 0.00 0.00 96 1018.7
20260901045804 72 161 0.0 0.0 0.00 0.00 0.00 96 1018.9
20260901044804 72 161 0.0 0.0 0.00 0.00 0.00 96 1018.8
20260901044304 72 159 0.0 0.0 0.00 0.00 0.00 96 1018.9
20260901043804 72 159 0.0 0.0 0.00 0.00 0.00 96 1018.9
20260901042807 72 159 0.0 1.0 0.00 0.00 0.00 96 1018.9
20260901040813 73 159 0.0 1.0 0.00 0.00 0.00 96 1019.1
20260901040305 72 150 0.0 0.0 0.00 0.00 0.00 96 1019.1
20260901035305 72 149 0.0 0.0 0.00 0.00 0.00 96 1019.0
20260901034304 72 149 0.0 0.0 0.00 0.00 0.00 96 1019.2
20260901032806 72 149 0.0 1.0 0.00 0.00 0.00 96 1019.3
20260901032306 72 149 0.0 1.0 0.00 0.00 0.00 96 1019.3
20260901031805 72 149 0.0 1.0 0.00 0.00 0.00 96 1019.3
20260901030805 72 149 0.0 1.0 0.00 0.00 0.00 96 1019.3
20260901024304 73 148 0.0 1.0 0.00 0.00 0.00 95 1019.4
20260901023806 73 148 0.0 1.0 0.00 0.00 0.00 95 1019.4
20260901023304 73 148 0.0 1.0 0.00 0.00 0.00 95 1019.3
20260901022804 73 148 0.0 1.0 0.00 0.00 0.00 95 1019.3
20260901021304 73 148 0.0 1.0 0.00 0.00 0.00 95 1019.3
20260901015804 73 148 0.0 1.0 0.00 0.00 0.00 94 1019.2
20260901013806 74 148 0.0 1.0 0.00 0.00 0.00 93 1019.0
20260901011304 74 148 0.0 0.0 0.00 0.00 0.00 93 1019.1
20260901010804 74 148 0.0 0.0 0.00 0.00 0.00 93 1019.1
20260901005804 75 148 0.0 0.0 0.00 0.00 0.00 91 1019.1
20260901005306 75 148 0.0 0.0 0.00 0.00 0.00 91 1019.0
20260901004805 75 148 0.0 0.0 0.00 0.00 0.00 91 1019.0
20260901003804 76 148 0.0 0.0 0.00 0.00 0.00 90 1018.9
20260901002804 77 148 0.0 3.0 0.00 0.00 0.00 87 1018.8
20260901002306 78 155 0.0 3.0 0.00 0.00 0.00 86 1018.8
20260831234804 78 88 0.0 2.0 0.00 0.00 0.00 85 1018.8
20260831234305 78 88 0.0 2.0 0.00 0.00 0.00 84 1018.8
20260831232306 79 165 2.0 5.0 0.00 0.00 0.00 83 1018.8
20260831231804 78 151 1.0 3.0 0.00 0.00 0.00 84 1018.8
20260831230306 79 140 0.0 2.0 0.00 0.00 0.00 85 1019.1
20260831225805 79 140 1.0 2.0 0.00 0.00 0.00 83 1019.1
20260831222804 80 109 0.0 2.0 0.00 0.00 0.00 82 1019.4
20260831222306 80 109 1.0 3.0 0.00 0.00 0.00 81 1019.5
20260831221805 80 110 1.0 3.0 0.00 0.00 0.00 82 1019.5
20260831220804 80 45 1.0 3.0 0.00 0.00 0.00 80 1019.6
20260831215804 80 45 1.0 3.0 0.00 0.00 0.00 82 1019.6
20260831214804 81 45 2.0 3.0 0.00 0.00 0.00 77 1019.6
20260831213804 81 49 2.0 3.0 0.00 0.00 0.00 78 1019.4
20260831213305 81 53 1.0 2.0 0.00 0.00 0.00 78 1019.4
20260831212804 81 53 0.0 2.0 0.00 0.00 0.00 81 1019.4
20260831212306 81 53 0.0 2.0 0.00 0.00 0.00 80 1019.4
20260831211804 80 53 0.0 2.0 0.00 0.00 0.00 79 1019.4
20260831211304 81 53 1.0 3.0 0.00 0.00 0.00 79 1019.5
20260831210304 81 54 2.0 3.0 0.00 0.00 0.00 77 1019.5
20260831205804 81 38 2.0 3.0 0.00 0.00 0.00 77 1019.5
20260831205305 82 0 0.0 3.0 0.00 0.00 0.00 77 1019.5
20260831204304 80 53 2.0 3.0 0.00 0.00 0.00 80 1019.6
20260831203804 80 54 2.0 3.0 0.00 0.00 0.00 78 1019.6
20260831203305 80 54 1.0 3.0 0.00 0.00 0.00 77 1019.6
20260831202306 80 56 2.0 3.0 0.00 0.00 0.00 76 1019.6
20260831201804 80 59 0.0 2.0 0.00 0.00 0.00 77 1019.7
20260831201304 80 59 1.0 2.0 0.00 0.00 0.00 77 1019.7
20260831200804 80 59 0.0 3.0 0.00 0.00 0.00 79 1019.6
20260831192306 82 57 2.0 5.0 0.00 0.00 0.00 73 1019.9
20260831191304 83 39 2.0 6.0 0.00 0.00 0.00 72 1019.9
20260831190804 83 52 4.0 6.0 0.00 0.00 0.00 71 1020.1
20260831185306 82 61 3.0 5.0 0.00 0.00 0.00 70 1020.2
20260831184304 82 58 2.0 5.0 0.00 0.00 0.00 70 1020.4
20260831183304 83 2 4.0 7.0 0.00 0.00 0.00 69 1020.4
20260831182305 83 61 4.0 9.0 0.00 0.00 0.00 71 1020.3
20260831181805 83 355 2.0 9.0 0.00 0.00 0.00 72 1020.4
20260831180804 83 49 1.0 6.0 0.00 0.00 0.00 70 1020.4
20260831174304 84 162 4.0 7.0 0.00 0.00 0.00 68 1020.5
20260831173804 84 144 1.0 5.0 0.00 0.00 0.00 72 1020.5
20260831163804 82 357 2.0 5.0 0.00 0.00 0.00 73 1020.9
20260831163304 81 25 3.0 5.0 0.00 0.00 0.00 76 1020.9
20260831162804 81 84 3.0 5.0 0.00 0.00 0.00 76 1020.9
20260831161805 80 75 3.0 6.0 0.00 0.00 0.00 75 1021.0
20260831160807 79 159 2.0 5.0 0.00 0.00 0.00 80 1020.9
20260831155804 78 12 3.0 7.0 0.00 0.00 0.00 80 1021.0
20260831155306 78 57 5.0 7.0 0.00 0.00 0.00 79 1021.0
20260831152804 78 0 3.0 6.0 0.00 0.00 0.00 82 1021.1
20260831152306 77 22 1.0 3.0 0.00 0.00 0.00 84 1021.1
20260831151304 76 24 0.0 5.0 0.00 0.00 0.00 84 1021.0
20260831150804 76 18 3.0 5.0 0.00 0.00 0.00 85 1020.9
20260831145804 76 73 3.0 6.0 0.00 0.00 0.00 84 1021.1
20260831144805 76 50 2.0 6.0 0.00 0.00 0.00 83 1021.2
20260831143805 77 16 3.0 5.0 0.00 0.00 0.00 86 1021.1
20260831143304 76 37 3.0 5.0 0.00 0.00 0.00 84 1021.1
20260831141804 76 58 3.0 8.0 0.00 0.00 0.00 85 1021.1
20260831141304 76 66 3.0 7.0 0.00 0.00 0.00 86 1021.1
20260831135804 75 49 1.0 6.0 0.00 0.00 0.00 87 1021.0
20260831134805 75 64 3.0 6.0 0.00 0.00 0.00 87 1021.0
20260831133803 74 13 0.0 3.0 0.00 0.00 0.00 89 1021.1
20260831132306 74 42 1.0 6.0 0.00 0.00 0.00 89 1021.0
20260831131804 74 26 1.0 6.0 0.00 0.00 0.00 90 1021.0
20260831130804 74 350 1.0 5.0 0.00 0.00 0.00 89 1021.1
20260831130304 74 27 1.0 6.0 0.00 0.00 0.00 89 1021.0
20260831124805 74 19 1.0 6.0 0.00 0.00 0.00 89 1021.0
20260831123804 74 24 1.0 6.0 0.00 0.00 0.00 88 1020.9
20260831123304 74 6 2.0 3.0 0.00 0.00 0.00 88 1020.9
20260831122805 74 33 1.0 7.0 0.00 0.00 0.00 88 1020.8
20260831122306 74 51 1.0 7.0 0.00 0.00 0.00 88 1020.8
20260831121304 74 67 2.0 10.0 0.00 0.00 0.00 89 1020.7
20260831120304 74 51 2.0 5.0 0.00 0.00 0.00 92 1020.6
20260831115306 73 111 1.0 3.0 0.00 0.00 0.00 93 1020.5
20260831114804 73 111 0.0 1.0 0.00 0.00 0.00 94 1020.5
20260831114304 73 111 0.0 2.0 0.00 0.00 0.00 95 1020.5
20260831113804 72 111 0.0 2.0 0.00 0.00 0.00 96 1020.5
20260831112307 72 111 0.0 0.0 0.00 0.00 0.00 96 1020.4
20260831111803 72 111 0.0 0.0 0.00 0.00 0.00 97 1020.3